Wind_Speed
30 30 25 22 20 18 16 15 15 14 13 13 12 15 14 12 10 10 9 9 8 8 8 7 7 5 5 5 7 8 9 8 7 8 8 9 10 9 9 8 12 7 9
32 33 27 24 22 19 17 15 13 12 13 16 15 12 11 12 10 9 9 8 9 11 11 11 10 10 7 5 4 2 2 4 6 7 6 6 8 8 9 7 7 9 8
32 32 28 24 24 21 18 17 18 18 15 13 10 9 9 8 8 9 11 12 12 12 12 12 11 11 10 9 6 4 3 4 2 5 6 6 4 7 9 8 5 6 7
32 32 29 25 24 21 19 18 16 15 12 10 10 10 12 12 12 12 12 12 12 12 12 12 11 12 11 11 9 8 8 6 4 3 9 4 8 7 8 6 6 6 5
30 28 28 27 24 21 20 18 16 14 12 11 12 13 13 13 13 12 12 13 12 12 11 11 11 12 11 11 11 12 13 13 12 9 5 5 7 9 9 8 5 4 4
29 29 30 26 23 21 18 15 15 14 12 13 13 14 13 13 13 12 12 12 12 12 12 11 11 12 12 11 11 13 13 12 13 11 9 10 9 11 10 9 9 8 9
33 29 28 25 24 21 18 17 16 15 14 15 14 14 14 13 13 13 12 12 12 11 11 11 11 12 12 12 12 14 16 16 16 15 13 13 12 11 11 13 12 12 12
31 30 27 26 23 20 16 17 16 16 16 15 15 14 13 13 13 13 12 12 12 11 11 11 12 12 12 13 14 15 15 19 12 9 15 19 16 14 14 13 14 15 15
31 29 28 26 23 17 16 17 17 17 16 15 15 14 13 14 13 13 12 12 12 11 11 11 12 12 13 15 18 18 18 19 16 9 11 15 14 14 14 15 15 15 14
31 30 28 25 22 19 19 18 19 18 16 14 14 13 13 13 12 12 10 11 11 11 11 11 13 15 16 17 17 15 15 16 15 13 10 13 11 12 12 14 14 14 13
28 30 27 23 20 20 20 19 18 16 14 13 15 15 12 10 9 11 11 12 13 13 13 13 15 16 19 18 15 15 14 13 12 11 14 13 13 13 13 13 14 14 14
25 31 27 25 23 20 18 18 16 15 15 14 12 12 12 9 7 12 13 14 14 15 15 14 11 9 8 9 11 12 14 10 9 10 15 16 15 15 14 14 15 13 13
25 30 27 26 25 21 18 17 14 12 11 11 9 9 6 9 10 10 9 11 11 10 9 10 8 9 11 9 10 10 11 12 10 10 10 10 12 11 11 9 7 8 9
26 29 24 24 21 18 19 15 13 14 13 14 12 10 10 8 9 9 8 11 9 7 8 8 8 9 9 9 10 10 10 11 8 8 7 6 8 10 9 8 8 9 10
24 27 23 21 18 18 18 15 14 15 14 13 13 9 9 8 8 10 9 8 9 9 7 7 7 7 8 8 8 8 8 8 7 6 8 7 9 11 11 11 11 11 11
22 29 25 23 18 17 14 13 12 13 12 12 13 12 10 9 8 10 10 9 9 8 7 7 7 6 6 6 6 6 6 7 8 5 6 8 8 9 11 11 11 11 11
23 29 27 24 19 18 17 15 14 13 12 11 10 11 10 10 8 8 10 9 8 9 7 6 6 6 5 5 5 4 5 5 4 5 4 5 6 7 8 9 10 10 10
28 30 30 26 22 18 18 16 15 13 12 11 12 11 10 10 9 8 9 8 7 7 7 6 6 5 3 3 2 2 2 3 3 2 3 2 2 5 6 7 8 8 8
32 26 30 27 20 17 18 16 14 15 11 11 11 10 9 10 10 8 8 9 6 7 6 6 4 5 3 2 1 2 3 2 3 3 4 2 1 1 4 5 6 7 7
25 24 29 30 23 18 18 16 15 16 12 11 10 9 10 9 10 9 7 9 8 7 5 5 3 2 1 2 1 4 4 5 6 5 5 4 5 5 2 5 5 7 8
23 21 22 22 28 23 20 19 17 17 15 13 12 10 10 9 10 8 8 8 9 6 5 4 2 2 1 3 2 5 8 6 8 7 7 6 7 7 5 6 4 6 7
22 27 20 23 23 24 20 17 16 15 14 13 13 12 11 11 10 10 9 7 8 6 5 3 2 2 1 3 1 3 2 4 8 10 8 7 6 6 6 8 8 8 9
25 26 29 19 16 18 16 16 15 16 11 13 13 13 13 12 11 11 10 8 8 8 5 4 4 3 2 2 0 1 2 1 4 8 10 7 6 7 9 8 10 11 11
22 26 29 22 17 12 12 16 15 16 14 13 14 14 15 13 13 13 11 10 7 6 7 5 5 4 4 3 2 2 2 1 1 3 2 7 8 8 9 10 9 10 12
22 23 27 29 22 13 8 8 9 11 10 10 13 13 13 14 13 12 11 10 9 8 7 7 7 5 5 4 2 3 3 4 5 3 3 3 6 10 9 7 8 8 10
27 31 35 32 27 21 16 11 10 4 3 12 11 12 14 13 14 12 11 9 8 8 7 6 6 7 7 5 6 5 5 3 2 5 4 5 5 7 6 12 11 10 8
Wind_Direction
151 157 153 150 142 138 132 126 124 125 122 116 111 104 96 97 97 89 84 71 62 53 48 49 55 62 67 63 62 42 47 49 42 53 68 61 49 42 44 51 62 47 51
153 153 153 153 145 140 135 136 136 138 121 116 112 113 101 90 82 73 65 58 58 60 56 53 49 48 46 43 47 68 46 35 42 53 60 47 53 35 36 43 43 48 43
147 151 152 154 144 141 143 136 127 124 126 121 126 106 96 89 81 77 71 68 66 64 63 62 57 52 50 49 38 20 359 356 17 71 60 36 38 14 30 35 27 32 29
142 150 155 151 146 147 142 137 123 117 123 121 112 103 96 92 89 86 82 76 71 66 63 59 59 57 52 49 43 38 38 34 34 54 29 57 63 21 12 15 10 5 11
143 148 154 150 151 147 143 138 124 120 120 114 106 101 100 96 91 89 85 81 77 71 65 64 60 56 52 49 52 58 65 65 62 51 33 23 32 27 36 32 39 46 16
143 157 152 151 152 153 145 140 128 124 119 114 109 105 101 96 94 90 86 81 76 71 69 64 60 59 56 53 67 77 65 58 70 70 70 66 48 54 50 53 58 56 50
140 151 151 154 154 150 144 134 131 125 119 115 112 109 105 100 97 93 88 83 77 73 71 68 60 59 59 58 77 85 75 71 78 88 73 66 65 60 63 63 63 62 58
140 145 151 153 154 149 159 137 132 126 122 120 115 111 109 104 98 92 87 85 81 78 76 72 66 61 61 72 86 80 67 64 75 80 74 62 57 54 56 59 63 62 56
141 147 152 151 151 162 149 141 136 130 127 123 120 119 113 108 100 94 91 84 81 80 79 78 75 70 72 80 90 79 72 63 65 78 73 56 47 51 55 62 64 60 56
141 151 147 153 153 153 142 144 143 144 139 131 122 112 105 99 101 91 90 87 82 82 82 83 83 79 75 88 83 73 69 67 70 74 85 56 53 52 52 58 60 61 57
145 151 157 146 148 145 150 155 152 149 133 128 119 106 92 73 89 95 88 85 82 79 81 86 88 84 82 77 72 74 66 69 62 61 75 63 69 64 62 62 61 60 58
146 149 150 148 147 148 156 154 150 142 132 128 114 108 122 145 113 91 86 82 81 76 76 80 75 68 73 67 62 74 77 70 65 81 79 65 68 63 58 55 55 55 48
150 149 154 149 150 152 147 150 153 135 135 124 130 140 148 115 92 77 79 79 67 67 65 67 70 95 93 95 87 84 80 72 65 80 92 85 62 58 48 43 36 31 32
144 148 144 144 146 149 151 155 152 159 156 155 148 154 134 137 125 121 104 89 100 85 87 93 82 82 88 96 90 86 88 83 70 58 94 80 68 56 55 46 38 39 41
151 143 141 145 148 155 153 157 158 163 157 158 153 145 147 133 139 125 115 117 101 104 92 95 98 94 90 95 92 90 86 89 83 64 71 80 77 70 65 60 54 49 48
157 146 148 150 159 155 160 154 163 157 173 161 156 146 141 152 151 138 129 118 114 105 103 104 97 94 99 104 98 92 94 92 96 62 52 60 64 64 65 60 55 52 49
158 160 156 153 161 157 160 154 155 163 152 154 158 151 151 147 152 134 133 128 122 119 109 101 95 99 107 106 114 108 109 97 107 116 71 44 38 38 47 51 52 50 47
167 172 165 154 156 163 163 163 165 160 160 168 162 156 155 155 156 150 139 134 124 124 115 112 109 91 99 128 131 143 160 144 133 146 121 115 42 10 16 33 36 36 42
180 175 162 167 160 163 169 162 162 153 161 168 162 161 159 162 154 156 156 134 128 123 129 114 111 125 90 99 131 199 209 207 206 210 195 242 270 155 332 354 7 15 17
179 185 178 170 164 176 165 159 162 158 165 180 162 173 171 167 162 170 161 150 141 129 109 107 112 86 91 8 254 235 227 238 227 230 232 221 255 302 271 304 332 340 348
163 164 177 177 169 175 167 167 166 172 172 173 175 187 165 187 176 171 168 158 143 151 164 153 134 101 144 338 315 259 238 232 226 224 226 235 254 276 288 288 299 301 311
169 165 169 187 175 174 168 174 176 179 185 183 184 187 182 194 191 181 182 166 161 164 147 150 159 157 220 357 13 303 326 205 228 224 221 231 248 270 263 289 290 291 290
177 171 165 202 172 170 170 171 178 176 170 185 193 191 194 202 198 187 188 189 182 174 179 198 211 192 172 211 10 152 6 266 323 195 211 242 233 254 272 278 265 289 291
190 177 177 173 187 176 180 171 177 175 173 191 201 201 202 203 211 198 197 192 203 193 199 217 232 218 227 197 212 196 236 310 85 338 221 218 237 249 260 261 273 290 292
182 170 177 172 184 192 169 165 190 202 205 208 205 204 211 207 221 213 207 208 208 214 213 217 239 238 239 244 263 222 240 223 245 208 278 320 260 271 274 259 276 285 291
187 190 187 183 183 183 174 204 191 223 171 166 182 199 208 215 216 217 213 212 213 223 226 240 244 235 238 238 245 246 248 258 246 232 256 270 282 309 311 302 294 298 286
Height
778 783 790 795 798 801 804 806 808 810 812 813 815 816 817 818 819 820 820 821 821 821 821 821 822 822 822 823 824 823 823 823 823 823 823 824 824 825 825 825 825 825 825
774 782 789 794 798 801 804 808 809 811 813 814 815 817 818 819 820 820 821 821 821 822 822 822 822 822 822 822 823 823 824 824 824 824 824 824 825 826 826 826 827 826 826
775 782 789 794 798 802 804 807 810 812 814 815 816 817 818 819 820 821 821 822 823 823 823 822 822 823 822 822 823 823 823 824 824 825 825 825 826 826 827 827 828 828 827
778 784 789 795 799 802 805 808 811 813 815 816 817 818 819 820 820 822 822 823 823 824 824 823 823 823 823 823 823 823 823 824 825 826 826 827 828 827 827 828 828 828 828
780 786 790 795 799 803 806 808 811 813 815 816 818 819 820 821 822 822 823 823 824 825 825 825 824 823 824 823 824 824 825 825 826 827 828 828 828 828 828 828 828 828 828
781 786 792 796 800 803 806 809 811 813 815 817 818 820 821 822 823 823 824 824 825 826 826 826 826 825 825 825 825 826 827 827 828 828 830 830 830 830 829 829 829 829 828
780 787 793 797 800 804 807 810 812 814 816 818 820 821 823 824 824 825 825 825 826 826 827 827 827 827 826 826 826 827 828 828 827 830 831 831 831 831 830 830 830 829 829
781 789 794 798 802 805 807 810 813 815 817 819 820 823 824 824 825 826 827 827 827 827 828 828 828 829 828 828 828 830 830 830 830 831 832 833 833 833 832 831 831 831 832
783 789 794 799 802 806 808 811 814 815 817 819 820 822 824 824 825 826 827 828 828 828 829 829 829 830 830 830 831 831 831 832 832 833 834 835 836 836 835 834 834 833 834
785 790 795 799 802 806 810 812 814 815 817 819 821 822 824 825 826 827 828 829 829 829 830 831 831 832 832 833 834 834 835 835 834 835 837 838 838 838 837 837 836 835 835
787 790 795 799 802 806 809 813 814 816 817 820 822 824 826 826 828 828 829 830 831 831 832 833 834 834 835 836 836 836 837 836 836 838 838 839 839 840 839 839 838 838 837
785 790 794 798 802 806 809 812 815 817 818 821 824 825 828 829 829 829 831 832 833 834 835 835 835 835 836 837 838 838 838 837 838 839 840 840 841 840 841 840 840 839 839
783 788 794 797 802 806 810 813 816 818 819 820 825 827 828 830 830 830 833 833 834 835 836 837 837 836 838 839 839 840 840 839 839 840 841 841 842 841 842 842 842 841 840
782 789 794 799 803 808 811 814 816 819 821 821 825 827 829 831 831 832 833 833 835 837 837 838 838 839 839 840 840 841 841 842 840 841 842 843 842 842 843 843 843 843 841
785 788 795 800 806 809 812 815 817 819 820 822 824 827 828 830 832 831 832 834 835 837 838 839 840 840 841 842 842 842 843 843 843 843 843 843 843 844 843 843 843 843 842
786 786 794 799 806 810 814 816 818 820 820 822 824 826 827 830 833 831 832 833 835 837 839 840 841 841 842 843 843 843 844 844 845 844 844 844 844 844 844 844 844 844 843
784 786 791 797 803 809 812 815 818 820 822 823 825 826 827 829 833 832 832 834 835 837 839 840 841 841 842 843 844 844 845 845 846 846 845 845 845 845 844 844 844 844 844
783 786 788 790 800 807 811 814 815 820 822 823 825 826 827 829 832 833 833 834 835 837 838 839 840 841 842 842 843 844 844 845 846 846 846 846 845 845 845 845 844 844 844
782 784 778 787 803 805 809 813 814 818 822 825 824 826 827 829 831 833 833 833 835 836 837 838 839 840 841 842 842 843 844 845 845 846 846 845 846 846 845 845 844 844 843
780 784 784 789 796 808 810 810 814 816 821 825 825 825 827 829 831 832 833 833 834 836 837 838 839 840 840 840 841 841 842 843 843 844 845 844 843 844 844 844 844 843 843
781 786 788 794 797 801 805 807 811 816 820 823 825 825 828 829 830 832 832 833 834 835 836 837 838 838 839 839 838 839 838 840 841 841 841 842 841 841 842 843 843 843 842
780 784 789 800 800 801 800 805 810 816 819 823 824 825 827 829 830 831 832 832 833 834 835 836 837 837 837 837 837 838 839 839 838 839 839 840 841 841 841 841 842 841 840
778 785 787 794 799 801 799 804 811 815 819 822 822 824 827 828 829 830 831 831 832 833 834 835 836 836 835 836 836 837 840 841 838 837 838 839 839 840 840 839 839 839 839
776 783 789 795 801 800 799 802 808 810 814 817 820 823 825 827 828 829 829 830 831 832 833 834 835 836 836 835 837 836 838 840 841 841 837 837 837 838 837 838 838 838 837
775 779 783 786 794 791 802 803 811 813 813 815 819 822 824 827 828 829 828 829 830 831 832 832 834 834 836 835 836 836 837 837 839 841 842 837 837 836 836 836 836 835 835
772 776 781 785 792 797 793 803 808 812 812 812 817 821 823 824 828 827 828 828 829 831 831 832 833 834 834 834 835 836 836 836 837 838 840 836 834 834 833 833 833 832 832